This demonstration page uses our WeatherBlox Daily Observations layout. Learn more.

Hourly Observations for July 11, 2019

Temp ( °F °C ) Dew Point ( °F °C ) Humidity (%) Winds ( mph kmh ) Pressure ( in mb ) Visibility ( mi km ) Precip ( " mm )
12:15 am 00:15 Clear 64 17.8 64 17.5 98 98 Calm 30.18 1022 10 16.09344 0 0
12:35 am 00:35 Clear 64 18 64 17.7 98 98 Calm 30.18 1022 10 16.09344 0 0
12:55 am 00:55 Clear 64 17.6 63 17.3 98 98 Calm 30.18 1022 10 16.09344 0 0
1:15 am 01:15 Clear 63 17.4 63 17.3 99 99 Calm 30.18 1022 10 16.09344 0 0
1:35 am 01:35 Clear 63 17.1 63 17.1 100 100 Calm 30.18 1022 10 16.09344 0 0
1:55 am 01:55 Clear 63 17.1 63 17 99 99 Calm 30.18 1022 10 16.09344 0 0
2:15 am 02:15 Clear 63 17.1 63 17.1 100 100 W 3 6 30.18 1022 10 16.09344 0 0
2:35 am 02:35 Clear 63 17 62 16.9 99 99 Calm 30.15 1021 10 16.09344 0 0
2:55 am 02:55 Clear 62 16.8 62 16.8 100 100 Calm 30.15 1021 10 16.09344 0 0
3:15 am 03:15 Clear 63 17 62 16.9 99 99 Calm 30.15 1021 10 16.09344 0 0
3:35 am 03:35 Clear 62 16.5 62 16.5 100 100 Calm 30.15 1021 10 16.09344 0 0
3:55 am 03:55 Clear 62 16.7 62 16.7 100 100 Calm 30.15 1021 10 16.09344 0 0
4:15 am 04:15 Clear 61 16.1 61 16.1 100 100 Calm 30.15 1021 10 16.09344 0 0
4:35 am 04:35 Clear 60 15.8 60 15.8 100 100 Calm 30.12 1020 10 16.09344 0 0
4:55 am 04:55 Clear 61 15.9 61 15.9 100 100 Calm 30.12 1020 10 16.09344 0 0
5:15 am 05:15 Clear 60 15.6 60 15.6 100 100 Calm 30.12 1020 10 16.09344 0 0
5:35 am 05:35 Clear 60 15.5 60 15.5 100 100 Calm 30.12 1020 7 11.265408 0 0
5:55 am 05:55 Clear 60 15.5 60 15.5 100 100 Calm 30.12 1020 7 11.265408 0 0
6:15 am 06:15 Clear 59 15 59 15 100 100 N 3 6 30.12 1020 7 11.265408 0 0
6:35 am 06:35 Sunny with Mist and Fog 60 15.7 60 15.7 100 100 Calm 30.12 1020 5 8.04672 0 0
6:55 am 06:55 Sunny 61 16 61 16 100 100 Calm 30.15 1021 10 16.09344 0 0
7:15 am 07:15 Sunny 63 17.1 63 17.1 100 100 Calm 30.15 1021 10 16.09344 0 0
7:35 am 07:35 Sunny 64 17.9 63 17.4 97 97 Calm 30.12 1020 10 16.09344 0 0
7:55 am 07:55 Sunny 67 19.2 64 17.9 92 92 SW 3 6 30.12 1020 10 16.09344 0 0
8:15 am 08:15 Sunny 68 20.1 64 17.9 87 87 Calm 30.12 1020 10 16.09344 0 0
8:35 am 08:35 Sunny 70 21.1 65 18.1 83 83 Calm 30.12 1020 10 16.09344 0 0
8:55 am 08:55 Sunny 71 21.9 65 18.4 81 81 S 3 6 30.09 1019 10 16.09344 0 0
9:15 am 09:15 Sunny 72 22.3 65 18.2 78 78 SE 3 6 30.09 1019 10 16.09344 0 0
9:35 am 09:35 Sunny 73 23 65 18.1 74 74 SE 5 7 30.09 1019 10 16.09344 0 0
9:55 am 09:55 Sunny 74 23.6 64 17.7 70 70 SSE 6 9 30.09 1019 10 16.09344 0 0
10:15 am 10:15 Sunny 75 24.1 65 18.2 70 70 SSE 6 9 30.09 1019 10 16.09344 0 0
10:35 am 10:35 Sunny 76 24.2 64 17.8 68 68 SSE 8 13 30.09 1019 10 16.09344 0 0
10:55 am 10:55 Sunny 76 24.7 64 17.9 66 66 S 8 13 30.09 1019 10 16.09344 0 0
11:15 am 11:15 Sunny 77 25.1 64 17.5 63 63 S 8 13 30.03 1017 10 16.09344 0 0
11:35 am 11:35 Sunny 78 25.6 63 17.4 61 61 SSW 7 11 30.03 1017 10 16.09344 0 0
11:55 am 11:55 Sunny 78 25.8 64 17.8 61 61 SSW 6 9 30.03 1017 10 16.09344 0 0
12:15 pm 12:15 Sunny 78 25.8 63 17.2 59 59 S 12 19 30.03 1017 10 16.09344 0 0
12:35 pm 12:35 Partly Cloudy 79 26.1 64 17.6 60 60 S 7 11 30.03 1017 10 16.09344 0 0
12:55 pm 12:55 Partly Cloudy 80 26.6 64 17.9 59 59 S 6 9 30 1016 10 16.09344 0 0
1:15 pm 13:15 Partly Cloudy 80 26.9 65 18.6 60 60 S 6 9 30 1016 10 16.09344 0 0
1:35 pm 13:35 Sunny 80 26.9 65 18.5 60 60 SSE 7 11 30 1016 10 16.09344 0 0
1:55 pm 13:55 Sunny 81 27.3 66 18.7 59 59 SSE 3 6 30 1016 10 16.09344 0 0
2:15 pm 14:15 Sunny 81 27.3 65 18.6 59 59 S 7 11 30 1016 10 16.09344 0 0
2:35 pm 14:35 Sunny 82 27.9 64 17.9 55 55 SSE 7 11 30 1016 10 16.09344 0 0
2:55 pm 14:55 Sunny 83 28.1 65 18.1 55 55 S 8 13 29.97 1015 10 16.09344 0 0
3:15 pm 15:15 Sunny 82 28 66 18.7 57 57 SSE 9 15 29.94 1014 10 16.09344 0 0
3:35 pm 15:35 Sunny 83 28.2 65 18.1 54 54 S 8 13 29.94 1014 10 16.09344 0 0
3:55 pm 15:55 Sunny 83 28.6 65 18.3 54 54 S 7 11 29.94 1014 10 16.09344 0 0
4:15 pm 16:15 Sunny 83 28.6 65 18.6 55 55 SSE 7 11 29.94 1014 10 16.09344 0 0
4:35 pm 16:35 Sunny 84 28.7 66 18.9 55 55 SSE 10 17 29.91 1013 10 16.09344 0 0
4:55 pm 16:55 Sunny 84 28.8 66 18.7 54 54 S 9 15 29.91 1013 10 16.09344 0 0
5:15 pm 17:15 Sunny 84 28.7 65 18.4 54 54 SSE 9 15 29.91 1013 10 16.09344 0 0
5:35 pm 17:35 Sunny 84 29 66 18.7 54 54 SSE 9 15 29.91 1013 10 16.09344 0 0
5:55 pm 17:55 Sunny 84 28.8 66 18.8 55 55 SSE 8 13 29.91 1013 10 16.09344 0 0
6:15 pm 18:15 Sunny 84 28.7 65 18.1 53 53 SSE 10 17 29.91 1013 10 16.09344 0 0
6:35 pm 18:35 Sunny 84 28.7 65 18.4 54 54 SSE 8 13 29.88 1012 10 16.09344 0 0
6:55 pm 18:55 Sunny 83 28.5 64 17.7 52 52 SSE 8 13 29.88 1012 10 16.09344 0 0
7:15 pm 19:15 Sunny 82 28 64 17.8 54 54 SSE 7 11 29.88 1012 10 16.09344 0 0
7:35 pm 19:35 Sunny 82 27.6 67 19.4 61 61 SSE 5 7 29.88 1012 10 16.09344 0 0
7:55 pm 19:55 Sunny 81 27 67 19.4 63 63 SSE 7 11 29.91 1013 10 16.09344 0 0
8:15 pm 20:15 Sunny 79 26.1 67 19.3 66 66 SSE 7 11 29.91 1013 10 16.09344 0 0
8:35 pm 20:35 Sunny 77 25 68 20 74 74 SE 7 11 29.91 1013 10 16.09344 0 0
8:55 pm 20:55 Sunny 76 24.2 68 19.8 77 77 SE 8 13 29.91 1013 10 16.09344 0 0
9:15 pm 21:15 Clear 74 23.5 67 19.2 77 77 SE 8 13 29.91 1013 10 16.09344 0 0
9:35 pm 21:35 Clear 73 22.8 67 19.2 80 80 SE 8 13 29.94 1014 10 16.09344 0 0
9:55 pm 21:55 Clear 73 22.5 67 19.2 82 82 SE 8 13 29.94 1014 10 16.09344 0 0
10:15 pm 22:15 Clear 72 22.1 66 19.1 83 83 SSE 7 11 29.94 1014 10 16.09344 0 0
10:35 pm 22:35 Clear 71 21.7 66 19 85 85 SE 8 13 29.94 1014 10 16.09344 0 0
10:55 pm 22:55 Clear 71 21.5 66 19 86 86 SSE 6 9 29.94 1014 10 16.09344 0 0
11:15 pm 23:15 Clear 70 21.1 66 18.9 87 87 SSE 5 7 29.94 1014 10 16.09344 0 0
11:35 pm 23:35 Clear 69 20.8 66 18.8 88 88 SSE 5 7 29.94 1014 10 16.09344 0 0
11:55 pm 23:55 Clear 70 21 65 18.4 85 85 SSE 6 9 29.94 1014 10 16.09344 0 0

Powered by AerisWeather